Wind_Speed
7 7 6 6 5 6 4 3 2 2 1 4 3 3 5 4 2 2 4 3 3 5 5 3 3 4 4 4 6 9 10 10 9 5 5 5 6 8 7 7 5 9 15 15 13 17 17 17 16 13 13 11 11 10 11 11 11 10 9 9 8 8 9 9 9 9 8 8 8 7 7 6 6 5 6 7 7 8 7 7 7 7 7 8 9 10 11 10 11 11 12 13 12 12 11 9 7
7 7 6 6 4 5 1 1 2 2 2 4 3 4 6 2 2 4 7 6 5 5 2 3 2 2 3 2 2 3 9 11 10 8 7 6 9 10 5 7 7 8 12 14 12 15 15 15 16 14 13 12 11 11 11 10 10 9 8 8 7 8 9 9 9 9 9 8 7 7 6 6 6 5 5 6 7 7 7 7 7 7 7 8 9 10 10 10 9 9 10 13 14 13 12 11 8
6 6 6 5 5 4 1 2 3 2 2 4 4 5 3 2 5 7 8 7 7 4 1 0 1 1 4 3 0 2 8 9 9 6 7 7 5 8 5 4 6 8 11 13 12 14 14 14 17 14 14 13 12 12 11 10 10 9 8 7 6 7 8 9 9 8 8 8 7 6 6 6 5 4 5 5 5 6 6 7 6 6 7 8 9 10 11 10 9 8 10 15 16 15 13 11 9
5 5 5 5 3 3 3 3 2 2 2 4 4 5 2 3 7 7 7 6 5 3 1 1 1 2 4 3 4 3 7 7 10 7 5 8 7 8 3 3 6 8 10 12 11 13 13 14 16 15 13 13 13 12 11 11 10 9 8 7 6 6 7 7 8 9 8 7 7 7 6 5 4 3 5 4 3 4 5 6 6 5 8 10 10 12 11 10 11 10 12 16 17 16 14 11 9
5 5 5 5 3 1 2 2 2 2 2 2 4 6 3 5 6 6 6 5 4 4 3 2 1 3 2 6 4 2 5 3 9 11 6 7 8 7 4 4 5 6 10 12 11 11 13 13 14 14 13 12 13 11 11 11 11 10 8 7 7 7 8 8 8 9 8 8 7 7 6 5 4 3 4 4 3 3 4 6 5 5 9 11 10 11 10 9 11 11 13 16 17 17 14 11 9
5 5 4 4 2 1 3 2 1 1 5 4 4 7 5 6 6 5 5 5 3 4 3 3 2 2 3 6 6 6 7 4 4 10 8 8 7 5 5 5 5 6 10 11 10 9 11 12 13 15 13 12 12 11 11 11 11 9 8 8 7 8 8 8 8 8 9 8 8 7 6 5 4 3 5 4 4 3 4 6 5 6 8 9 9 8 7 8 10 11 14 16 17 17 14 11 10
5 3 3 3 1 1 4 1 1 3 4 5 5 7 6 6 4 3 5 4 3 2 2 3 3 1 4 4 5 9 10 7 4 7 8 9 4 6 6 7 5 6 8 9 10 9 9 8 12 15 13 11 11 11 11 10 10 9 8 7 7 8 8 7 8 8 9 9 8 8 7 5 4 3 4 4 4 4 5 5 5 6 7 7 6 6 7 8 11 13 14 16 17 17 15 12 10
4 2 1 2 2 2 3 2 3 3 4 3 5 6 7 6 2 1 3 3 2 3 2 3 2 3 4 2 2 7 11 11 6 8 9 8 4 6 7 7 6 6 7 7 8 8 7 7 12 16 13 12 11 10 10 9 8 8 7 7 7 7 7 7 6 7 9 10 9 8 7 6 4 3 3 4 5 5 6 5 5 6 6 5 5 7 8 9 13 14 14 16 17 17 15 12 11
4 2 1 2 2 2 1 3 3 3 5 4 5 6 6 4 1 0 3 5 4 4 4 4 4 3 4 4 5 7 9 10 7 10 11 9 7 5 6 6 7 6 5 5 7 6 6 8 13 16 13 13 12 10 10 9 9 8 8 7 6 6 6 6 5 5 7 9 9 8 8 6 4 3 3 3 4 5 5 5 5 6 6 5 6 9 9 9 13 14 14 16 17 17 15 12 11
3 1 2 3 2 3 2 2 3 4 6 4 5 6 5 3 1 0 1 5 3 3 5 4 3 2 3 5 6 6 8 9 7 11 11 10 8 7 6 3 6 6 5 5 5 4 4 7 13 16 13 13 11 10 9 9 9 8 8 7 6 6 5 5 5 4 5 7 8 8 7 6 4 3 2 2 3 4 4 5 5 5 5 5 8 9 8 9 12 13 14 15 17 17 15 12 11
2 1 2 3 3 3 3 3 4 4 6 5 5 5 4 2 2 2 1 4 3 2 5 2 1 3 1 4 5 6 10 11 10 10 9 9 6 6 4 2 4 6 4 5 5 4 3 4 11 16 14 13 11 10 9 9 8 8 8 7 7 6 5 4 5 4 4 5 6 6 6 5 4 3 2 1 2 3 4 5 5 5 5 6 7 6 6 10 12 12 13 14 16 16 15 12 10
2 2 2 4 3 2 1 3 4 5 6 6 7 5 3 2 3 2 2 3 3 3 5 3 2 2 3 4 4 8 12 14 11 9 7 7 5 4 2 1 3 5 4 4 5 5 6 3 7 14 14 14 12 11 10 10 9 8 8 7 8 7 6 5 5 4 3 4 5 5 5 4 3 3 2 1 1 2 3 5 5 4 5 5 4 4 8 11 12 12 12 12 14 15 15 12 10
2 1 4 4 1 1 1 3 4 5 5 5 6 5 1 3 2 1 1 2 1 2 6 5 3 3 4 3 6 8 12 14 10 8 7 6 6 4 2 1 2 4 4 4 4 4 8 7 6 9 12 14 13 12 12 11 11 10 8 8 8 7 6 6 5 3 3 4 5 6 6 5 3 3 2 1 1 2 2 4 4 4 4 3 2 4 8 10 11 13 13 12 12 14 14 12 10
2 1 4 2 0 1 1 2 4 4 5 6 6 5 2 1 2 2 2 1 3 3 5 4 3 4 3 2 5 5 8 12 10 7 5 5 6 5 5 4 3 3 3 4 5 5 6 8 7 7 8 10 12 12 12 12 12 11 10 9 8 8 7 6 5 4 4 5 6 6 7 7 5 4 3 1 1 1 2 3 3 4 3 2 1 4 6 9 11 13 15 14 12 12 13 12 9
3 0 3 2 2 3 2 1 4 5 4 9 5 4 4 2 2 1 3 4 5 5 2 1 3 4 3 1 1 3 9 12 9 5 3 3 4 5 6 6 5 3 2 2 1 2 3 6 6 6 6 6 8 10 10 11 12 12 12 11 9 9 9 8 7 6 5 6 7 7 7 7 7 6 4 3 2 2 2 3 3 4 3 1 1 4 6 9 11 13 15 16 14 11 12 11 9
3 1 3 3 3 4 4 2 4 5 4 9 6 5 5 4 2 1 3 4 1 4 1 2 2 4 5 4 4 6 9 10 8 4 1 2 2 3 5 5 5 5 4 4 3 2 2 4 6 7 7 7 6 8 9 10 12 12 13 12 10 10 9 9 8 7 6 6 7 7 7 7 8 8 6 5 4 3 3 4 4 4 3 2 0 3 6 8 11 13 15 17 16 12 10 11 10
2 2 4 3 4 4 5 5 3 2 6 8 7 5 5 5 3 1 2 4 2 3 2 4 4 4 6 5 4 6 7 8 7 2 1 1 1 2 3 4 3 4 5 5 4 3 3 3 6 7 8 9 8 8 7 8 11 11 12 12 12 11 9 10 9 8 7 7 7 7 6 7 8 7 5 4 4 3 3 4 3 3 3 3 1 2 5 7 10 13 14 16 17 12 10 11 12
3 3 3 3 3 2 2 4 2 1 5 7 7 3 2 3 4 2 2 5 4 3 4 6 6 7 7 6 5 6 6 7 7 4 3 3 2 1 2 3 3 4 5 5 5 4 3 3 4 4 7 10 10 9 6 6 9 9 10 11 11 11 10 10 9 9 8 8 8 7 6 6 6 6 5 4 3 4 4 3 3 3 3 3 4 4 4 6 8 10 12 14 15 13 12 12 13
2 2 3 1 2 3 2 2 3 2 3 5 5 3 1 0 3 2 3 4 4 5 5 8 6 7 6 6 6 6 7 7 8 7 6 6 5 4 3 4 4 5 5 5 5 5 3 3 3 4 7 9 10 10 7 4 6 7 8 9 9 9 9 9 9 8 8 8 8 7 7 6 6 6 6 5 4 5 4 3 4 4 3 4 5 5 4 6 7 8 10 12 13 13 11 10 12
1 2 3 2 5 4 3 3 4 3 3 2 3 3 2 0 2 2 3 3 5 5 3 5 6 7 5 6 6 6 7 7 9 8 8 8 7 6 6 5 5 6 6 6 5 7 6 4 4 5 7 9 9 11 8 4 5 6 6 7 8 8 8 8 8 8 8 8 8 7 7 7 7 6 7 6 5 5 5 5 5 5 4 4 5 5 3 4 5 5 8 11 10 10 9 8 9
1 2 2 5 3 3 4 2 4 4 3 2 1 0 3 1 1 3 3 6 6 2 6 4 4 6 4 5 5 5 6 7 9 9 9 9 8 7 7 6 6 6 6 6 6 7 7 5 4 6 7 8 9 10 8 4 4 5 5 5 5 6 8 7 7 7 7 7 8 7 7 7 6 6 6 5 4 5 6 5 5 5 5 5 6 4 3 2 2 3 7 8 6 7 8 9 8
1 1 4 5 1 2 4 3 4 3 2 2 2 3 3 1 2 5 5 7 2 4 6 7 7 6 4 5 5 5 6 8 9 9 9 9 9 8 7 7 6 6 7 7 8 8 8 7 4 3 6 7 9 9 6 5 4 4 4 4 4 5 5 5 6 7 6 7 7 7 7 6 6 6 6 5 5 6 7 6 4 4 5 6 6 5 5 3 1 1 4 4 3 5 7 8 8
2 2 4 2 2 2 4 3 3 1 2 3 3 3 4 4 6 4 5 3 4 5 4 6 6 5 5 4 5 5 6 7 8 8 8 8 8 8 8 7 7 7 7 8 9 8 8 7 6 4 3 7 9 8 6 5 4 3 3 3 3 4 2 1 2 4 5 5 7 7 7 6 6 6 6 6 5 5 6 7 6 5 6 6 6 6 5 5 4 1 1 1 2 4 7 8 9
3 1 4 2 1 0 2 2 2 2 4 3 2 4 5 8 5 2 2 3 7 5 4 5 6 5 4 4 5 5 6 6 6 6 6 6 7 7 7 7 7 7 8 9 9 8 8 8 7 6 3 4 8 7 6 5 5 3 1 2 2 1 2 2 1 1 1 2 3 5 6 7 9 8 8 7 5 6 5 5 6 5 4 5 5 6 5 6 6 2 2 0 3 3 6 7 8
3 1 4 2 1 2 2 2 3 4 5 3 3 5 9 7 2 4 3 7 7 4 5 5 5 5 4 5 5 5 5 5 5 4 4 4 5 6 6 7 7 8 9 9 8 7 7 8 8 6 3 4 6 8 8 8 7 5 5 5 5 4 3 3 2 1 1 1 1 2 4 6 9 9 9 9 7 8 7 6 6 4 3 2 2 4 5 6 6 4 4 1 2 2 3 4 6
1 2 2 1 3 3 4 5 6 6 4 3 5 9 9 2 1 4 3 8 7 6 5 5 5 5 5 5 5 5 5 4 4 3 3 3 4 5 7 7 7 8 8 8 7 6 7 8 8 5 3 5 7 9 11 12 12 11 9 9 8 7 5 4 3 3 3 2 3 1 1 2 4 6 6 6 6 7 6 6 7 5 4 4 2 1 1 4 6 6 5 2 2 3 2 3 4
2 2 2 5 5 4 5 6 6 5 5 7 8 9 5 4 2 5 5 8 7 7 6 5 5 5 5 4 5 4 4 3 2 2 2 2 3 5 6 6 7 7 7 6 6 6 7 8 8 6 6 6 9 11 12 14 14 13 11 11 11 9 6 5 4 4 5 4 4 4 3 3 2 3 4 3 3 3 3 4 5 6 6 5 5 4 5 6 7 6 6 4 1 2 2 3 3
1 3 6 7 7 7 8 8 6 5 5 7 8 9 3 5 5 4 8 9 8 8 7 6 5 4 4 4 4 3 2 2 1 2 3 3 3 4 5 6 6 6 6 5 5 6 7 7 7 7 7 8 11 12 12 13 14 14 11 11 12 10 8 7 5 4 5 5 4 4 4 5 5 5 5 6 6 5 5 5 4 4 4 4 5 6 7 7 6 6 6 5 3 3 3 2 2
2 3 6 5 7 9 10 7 5 6 4 5 5 7 8 10 7 5 11 9 8 8 7 6 5 4 4 3 3 2 1 1 1 2 3 3 3 4 5 5 5 4 4 5 6 7 8 9 10 9 8 10 13 14 13 13 15 15 12 12 12 11 11 11 9 7 5 5 4 4 6 7 7 8 8 7 6 5 6 6 5 4 4 3 3 4 4 4 3 4 4 4 3 2 1 1 2
3 4 4 5 8 7 6 5 4 6 3 4 5 6 8 10 9 9 10 10 9 9 7 7 6 4 4 3 3 3 2 2 2 3 3 3 3 4 5 5 5 4 3 4 7 8 9 11 13 12 10 10 12 14 14 14 15 15 13 14 13 13 13 13 13 10 9 8 6 5 6 7 8 8 8 8 7 6 6 6 7 6 5 5 4 3 2 1 1 1 1 1 2 2 1 1 1
4 3 3 4 6 2 7 6 6 7 3 3 6 6 6 6 10 8 9 10 10 9 9 8 6 6 5 4 4 4 3 2 3 3 3 4 3 4 5 5 5 4 3 5 7 9 10 12 14 15 15 13 12 14 15 15 15 15 15 16 16 15 14 13 15 16 15 14 12 10 8 7 7 7 7 6 6 7 7 7 7 6 4 4 4 4 4 4 3 3 4 3 3 2 2 3 2
4 4 4 4 4 2 7 7 5 3 3 6 7 6 6 6 8 8 8 9 9 8 8 8 7 7 6 5 5 4 4 4 3 3 3 3 4 4 4 4 4 3 5 7 9 9 11 14 15 16 16 16 16 16 18 17 16 16 17 18 18 18 17 17 19 21 20 19 18 17 15 14 12 10 8 6 6 7 7 8 8 6 4 3 3 4 4 5 4 5 4 4 2 3 3 3 3
5 5 6 4 5 4 3 6 3 2 4 8 9 6 6 4 8 7 8 9 8 7 8 8 7 7 6 5 5 4 4 4 4 4 3 3 3 4 3 3 3 4 7 8 9 10 13 15 16 17 17 17 19 19 19 19 18 18 20 20 20 21 21 21 22 22 22 21 20 20 19 19 19 18 15 13 12 12 11 12 11 10 8 7 7 6 6 6 6 7 7 6 5 6 6 5 5
4 5 5 6 7 6 4 3 5 4 4 7 10 9 10 3 8 8 8 9 9 8 9 9 7 6 6 5 4 4 4 4 4 4 3 3 3 3 3 3 3 5 7 9 10 11 15 17 17 18 18 18 18 18 19 20 21 22 22 22 21 20 20 21 21 20 19 19 19 18 18 18 18 19 19 18 17 17 17 16 15 14 13 12 12 11 10 9 9 10 10 10 9 9 9 9 8
4 3 4 5 6 7 8 3 4 4 5 7 9 10 12 10 7 10 9 10 11 10 9 8 7 7 6 5 4 4 4 4 4 3 3 2 2 3 3 3 4 5 5 8 11 11 13 16 17 18 19 19 19 20 21 22 22 22 22 22 20 20 19 19 19 17 17 17 17 16 16 16 15 16 17 17 16 15 16 16 16 15 14 14 14 13 14 13 12 12 11 12 11 10 10 10 10
6 5 6 7 6 7 6 1 4 1 4 8 11 11 12 13 9 10 11 11 11 11 10 7 6 6 5 5 4 4 4 4 4 3 2 2 2 3 3 3 4 4 4 6 10 10 11 15 19 19 18 17 18 20 22 22 22 22 22 22 22 21 21 20 19 18 17 17 17 16 15 15 14 14 15 16 15 14 14 15 15 14 13 13 13 13 13 12 10 10 11 11 10 10 12 12 10
6 7 8 9 8 9 6 1 4 1 4 9 11 13 14 14 13 9 11 12 11 11 11 9 7 6 6 6 5 5 5 4 5 4 3 2 2 3 3 4 4 4 4 4 7 10 10 12 15 17 14 10 10 12 14 17 18 19 20 20 20 20 20 20 19 18 18 17 16 16 16 15 15 14 14 15 15 15 14 14 14 15 14 14 14 14 13 12 10 8 8 10 10 11 13 15 13
8 8 8 9 8 9 6 3 4 3 3 9 11 13 16 14 14 13 9 12 12 13 13 12 10 8 6 7 7 6 5 5 5 5 4 3 3 3 4 4 5 4 4 4 6 9 10 10 11 12 11 9 8 9 10 12 12 14 16 18 18 18 19 20 21 20 19 18 18 18 19 18 17 17 16 16 17 17 16 15 16 16 16 15 15 14 13 13 13 11 9 9 11 13 14 17 16
9 7 7 8 6 8 5 5 5 3 3 7 10 11 15 14 14 15 12 13 13 11 10 9 10 10 8 8 8 7 6 5 6 6 5 5 4 4 4 5 5 4 4 5 6 7 7 9 10 10 10 11 11 11 13 14 14 16 18 19 20 21 22 22 22 22 21 21 21 21 21 20 20 20 19 19 19 20 19 18 18 19 19 18 18 18 17 16 16 15 13 11 10 11 14 18 19
8 7 7 7 6 6 5 4 4 5 5 6 8 9 12 14 14 16 13 8 5 3 2 2 5 8 8 8 8 8 8 7 7 7 7 7 6 5 5 5 5 4 4 5 5 5 5 7 10 11 11 13 14 14 16 17 19 21 22 23 24 25 25 24 24 23 22 22 22 22 22 22 22 22 22 22 22 22 22 22 22 22 22 22 22 22 21 20 19 17 16 15 12 10 11 15 18
9 10 9 8 8 8 7 3 2 5 8 7 7 9 10 11 14 14 5 3 2 3 3 4 5 6 6 7 7 7 7 7 8 7 8 8 7 6 5 5 5 5 4 5 6 5 6 9 11 12 12 13 15 17 18 20 22 24 25 24 22 21 20 19 20 21 22 24 24 25 25 24 24 25 25 25 25 25 24 24 24 24 24 24 24 24 24 22 21 20 18 17 16 13 10 11 15
8 10 12 12 12 10 10 6 2 6 7 5 5 7 6 4 8 8 6 4 5 6 8 10 10 9 7 7 7 7 6 6 7 8 8 8 8 7 6 6 6 5 5 7 9 8 7 10 12 13 14 16 18 19 19 21 22 21 18 16 14 14 14 14 14 16 20 23 25 25 26 25 26 26 26 26 25 25 25 25 25 25 25 25 25 25 25 23 23 23 21 19 18 16 12 11 13
7 4 7 11 12 11 11 8 4 5 5 2 4 7 6 3 6 5 7 7 9 9 11 12 12 11 10 8 8 8 8 7 7 7 9 8 8 8 8 7 6 5 6 8 10 10 10 12 13 14 17 19 20 18 17 15 15 13 12 13 13 14 15 15 14 16 19 22 24 25 25 25 25 25 25 25 25 25 24 24 25 25 25 25 24 24 24 23 22 22 22 21 20 18 15 13 13
4 2 0 6 8 9 10 9 7 6 5 2 6 6 8 8 10 7 7 7 9 11 13 12 12 12 11 10 9 10 9 9 8 8 9 10 10 10 9 8 6 6 7 9 11 11 12 14 14 16 18 20 20 19 16 12 11 13 16 19 19 18 19 19 18 20 21 23 24 25 25 25 24 25 24 24 24 23 23 24 23 24 24 23 23 22 22 21 20 20 20 20 19 19 17 13 12
2 4 2 0 2 5 6 7 7 6 6 6 7 6 6 8 8 7 8 9 12 12 13 13 13 12 12 11 10 10 10 10 9 9 10 11 11 10 9 9 7 8 9 10 13 13 14 15 15 17 18 19 19 18 16 15 17 20 23 25 25 23 23 22 21 21 22 23 24 23 23 24 23 23 23 22 22 22 22 22 22 22 22 21 20 20 19 18 18 17 17 17 17 17 16 14 12
2 5 4 4 1 1 2 5 5 5 7 9 8 9 7 8 6 7 7 8 12 10 7 10 13 12 12 11 11 11 10 9 9 10 11 11 11 10 9 9 8 9 12 12 14 15 15 15 16 17 17 17 17 17 18 20 22 24 25 28 28 26 23 21 20 20 19 21 21 20 22 22 22 22 21 21 21 20 20 20 20 20 19 19 18 17 17 16 16 16 16 16 15 15 14 13 12
6 5 3 2 2 2 2 4 3 5 9 10 12 14 10 7 4 6 6 3 5 4 4 8 11 12 12 12 12 12 10 9 9 10 11 12 11 10 10 10 9 10 12 13 14 15 15 15 15 16 16 16 16 18 20 23 23 25 26 28 28 26 24 22 20 18 17 18 19 19 20 21 21 20 20 19 19 19 18 18 18 18 17 17 17 16 16 16 15 15 15 14 14 14 13 12 11
5 4 3 3 3 2 3 4 4 7 10 5 8 13 14 9 4 4 4 3 3 2 5 9 11 13 12 11 11 12 11 10 10 9 11 12 11 11 11 10 10 11 11 12 14 15 14 14 15 15 15 16 18 20 22 23 23 25 26 26 26 26 25 23 20 18 18 18 17 17 18 19 20 19 18 17 17 17 17 16 16 16 16 16 16 15 15 15 15 15 15 14 14 14 13 12 12
5 5 6 5 4 3 5 5 5 8 6 1 2 7 11 11 8 9 5 4 5 3 4 7 11 13 12 12 11 11 10 11 11 9 9 11 11 12 12 11 11 10 10 12 14 15 14 13 14 16 17 19 20 21 22 23 24 25 25 25 25 24 23 23 22 21 19 16 15 15 15 16 17 18 17 16 16 15 15 15 14 15 15 14 14 14 14 14 14 14 14 14 14 13 13 13 12
9 8 7 7 6 6 7 7 7 7 3 2 2 3 6 7 7 13 10 4 7 5 5 4 8 12 12 12 11 10 10 10 10 9 9 9 11 13 13 12 12 11 11 11 12 14 14 12 13 17 20 21 22 22 23 24 24 24 24 24 24 23 23 23 23 21 18 16 16 17 16 16 17 17 16 15 14 13 13 13 13 13 13 13 13 13 13 12 12 12 12 12 12 11 11 11 11
10 9 7 8 6 7 8 7 7 5 1 2 3 4 5 4 2 3 3 6 7 5 5 4 5 9 10 10 11 10 11 10 9 9 9 10 12 13 13 12 12 12 12 12 12 14 13 13 16 20 22 22 22 23 24 24 24 24 23 23 23 23 23 23 22 21 20 19 19 19 18 18 17 16 14 13 12 12 12 11 11 11 11 12 12 12 12 11 11 11 11 11 11 11 10 10 10
7 6 8 9 6 6 7 3 1 2 2 2 5 4 5 3 2 5 5 6 6 6 6 6 6 8 9 9 10 10 10 10 9 9 9 11 14 13 13 13 12 12 13 13 13 14 14 15 19 21 22 23 24 24 24 24 24 24 23 23 23 23 22 22 22 21 21 20 19 19 18 17 16 14 13 12 11 11 11 10 10 11 11 11 12 12 13 13 13 14 14 14 15 15 14 14 13
5 6 9 4 1 3 6 2 2 0 7 5 6 5 5 3 3 6 7 5 6 6 6 7 8 9 10 9 9 10 10 10 10 9 10 12 14 14 13 13 13 14 14 14 15 16 17 19 22 22 23 24 24 24 24 24 24 24 23 22 22 22 22 22 22 21 20 19 18 17 16 16 15 13 12 11 11 10 10 10 11 11 12 13 14 15 16 16 16 16 15 15 16 17 16 15 15
4 5 6 3 3 3 4 5 2 4 10 6 6 9 8 6 5 5 8 6 7 8 8 8 8 9 10 9 10 11 11 11 10 10 11 12 14 14 14 13 14 14 15 15 16 18 19 20 23 24 25 25 25 25 24 24 24 24 23 22 22 22 22 22 22 21 20 19 18 17 16 15 14 13 12 11 10 10 10 11 12 13 14 15 16 16 16 16 15 15 15 15 16 17 15 15 15
1 1 2 3 3 5 5 5 5 7 10 7 7 11 9 8 6 6 9 11 10 11 10 10 10 11 11 10 11 13 12 11 11 11 10 11 14 15 15 15 15 15 15 16 17 20 20 21 22 24 25 25 25 25 25 24 24 24 24 24 23 23 22 22 21 21 20 19 18 17 16 15 14 12 11 11 10 11 11 12 13 13 13 14 14 14 14 14 14 15 14 14 16 16 16 15 15
0 2 3 3 3 4 5 6 4 6 8 8 8 9 7 8 9 11 14 14 13 14 12 11 12 12 11 11 12 13 13 12 11 11 10 11 15 16 16 17 16 17 16 16 19 21 22 22 23 23 23 24 24 25 26 25 25 25 25 24 24 23 22 22 21 20 20 19 18 17 16 14 13 12 11 10 10 10 11 11 11 11 11 11 12 12 13 13 13 14 14 14 15 16 16 16 15
7 6 7 6 3 1 3 5 5 6 7 7 8 8 5 3 6 12 16 15 15 15 12 11 11 12 12 12 12 13 13 12 12 11 11 13 16 17 17 17 17 18 18 17 20 23 22 23 23 23 24 25 25 26 26 26 26 25 25 25 24 23 22 22 21 20 20 19 18 17 15 14 13 11 10 10 10 9 9 9 8 9 9 10 10 11 11 12 12 12 13 14 15 15 15 15 15
9 9 10 10 8 5 4 8 7 5 6 6 6 9 6 1 1 3 7 10 12 13 12 10 10 12 12 11 13 13 13 13 13 12 11 13 16 17 18 19 19 19 19 18 20 22 22 23 24 24 24 25 26 26 26 26 26 25 25 24 24 23 22 22 21 21 20 19 18 17 15 14 12 11 10 9 9 8 7 7 7 8 8 8 9 9 10 10 11 11 12 13 14 15 15 15 15
Wind_Direction
351 337 332 324 317 295 269 256 229 193 256 101 96 130 87 47 94 121 97 91 113 67 29 22 14 342 328 349 32 54 43 32 24 25 70 72 76 83 97 67 82 144 157 158 165 176 171 166 166 169 168 169 171 166 160 156 154 151 148 145 139 135 133 133 126 126 125 122 121 114 109 101 97 95 96 89 84 83 90 96 89 80 75 77 73 69 63 49 48 56 53 43 38 32 27 23 24
342 326 315 308 282 277 270 229 255 149 166 115 86 74 99 141 158 73 61 51 57 57 28 9 5 343 313 293 295 80 58 47 46 61 77 90 100 75 78 73 81 140 158 162 160 170 174 173 171 170 172 173 173 171 165 160 158 154 150 147 142 141 138 138 137 134 132 130 127 120 112 105 100 90 94 92 86 85 89 95 90 80 76 71 62 59 49 40 42 50 48 34 23 21 21 20 19
340 324 302 279 248 255 238 230 254 170 148 112 97 88 126 152 91 69 58 54 51 41 58 346 228 338 271 198 55 57 75 62 46 63 82 74 86 44 35 81 97 135 157 167 161 168 176 179 177 174 175 178 177 173 171 166 163 159 153 149 141 145 141 139 141 137 136 135 132 125 120 116 105 87 91 90 89 94 95 98 92 84 76 67 56 47 41 37 40 42 32 21 15 13 15 18 22
343 322 296 268 232 221 240 242 273 262 125 106 113 113 121 83 83 80 72 61 49 15 40 224 159 35 311 61 56 59 78 70 44 26 68 56 11 11 24 71 90 135 155 168 165 168 179 185 182 179 180 182 180 176 175 172 168 164 158 150 143 150 148 145 146 142 143 139 136 133 130 125 113 95 85 76 85 101 103 104 93 83 76 65 56 49 48 43 38 35 22 15 15 15 16 19 22
327 298 281 269 259 219 271 274 281 298 58 69 115 122 108 87 92 92 88 74 54 16 0 311 79 93 351 34 14 2 39 50 55 29 28 34 5 20 50 54 69 145 153 164 165 167 185 191 187 186 187 185 184 183 181 178 172 169 164 156 149 157 155 154 154 147 148 146 145 141 138 134 126 100 75 69 86 116 113 107 95 83 79 70 64 61 60 49 37 32 21 17 16 16 19 24 28
298 271 248 255 291 336 264 219 222 83 41 9 97 116 106 93 91 96 105 98 77 33 5 329 12 111 119 63 44 39 15 331 25 23 9 353 1 57 62 44 58 137 149 161 163 166 186 194 196 193 193 191 190 189 188 185 179 175 170 165 158 161 160 155 156 153 155 155 155 151 149 148 144 103 72 66 81 115 114 104 102 95 95 86 76 66 55 44 36 27 21 18 15 17 22 28 34
293 264 199 220 169 246 258 174 90 104 55 6 83 109 103 95 90 124 136 125 121 90 33 5 349 297 112 105 82 62 34 19 14 17 8 348 13 110 77 41 54 122 144 158 161 170 190 201 204 197 195 197 196 195 196 196 185 180 178 174 167 165 163 157 156 158 162 163 162 162 161 161 162 121 81 66 72 104 114 107 107 103 104 94 76 53 44 41 32 27 25 20 15 16 23 29 34
298 292 183 253 188 220 270 114 68 84 86 41 75 84 86 91 94 150 128 103 87 90 70 61 328 287 105 129 98 77 46 44 55 34 22 15 55 123 85 47 54 100 128 145 161 179 210 220 204 197 196 199 203 203 204 208 198 190 188 185 177 170 167 161 158 161 167 168 169 173 170 170 171 140 98 77 75 103 117 115 112 104 97 85 61 45 51 45 30 29 27 20 17 16 22 31 33
272 273 214 258 221 199 245 120 91 86 111 117 102 86 81 86 85 165 109 102 84 76 58 40 330 318 113 116 94 94 48 40 60 43 32 34 52 85 66 52 61 77 105 128 159 179 223 229 201 196 199 199 205 209 211 218 214 204 197 194 187 175 172 166 163 168 167 169 173 178 178 179 174 150 126 102 90 108 125 130 124 109 103 87 55 52 57 45 30 29 27 21 19 17 24 32 32
234 243 265 255 238 185 191 149 119 118 123 129 120 104 101 104 118 330 88 105 102 84 64 2 327 27 114 108 91 93 48 40 52 40 33 35 45 53 38 46 84 85 84 106 141 163 223 235 203 197 203 201 202 207 211 219 222 218 206 198 196 185 180 176 175 176 170 173 175 181 187 186 182 167 160 142 115 120 140 142 133 120 110 83 64 64 58 41 32 30 27 23 20 18 24 32 35
218 179 281 255 226 196 192 168 138 131 132 143 133 107 104 118 159 154 82 105 116 110 87 308 318 59 154 104 84 101 65 44 45 33 29 35 46 62 46 26 107 106 95 127 140 146 198 249 212 201 206 207 205 205 208 217 223 225 215 207 206 200 193 190 190 186 182 185 182 188 197 197 199 195 191 185 132 138 154 148 136 127 104 79 77 73 47 33 29 28 28 24 22 21 23 30 36
240 170 214 246 230 205 163 156 150 138 141 166 152 115 98 152 202 163 127 109 129 142 89 9 10 5 237 128 111 116 67 38 38 27 28 40 46 68 70 49 109 108 97 138 144 152 166 186 215 211 214 214 212 209 209 215 220 222 222 219 213 206 200 194 195 194 200 211 205 207 218 220 223 222 207 199 167 168 161 153 144 131 106 90 88 58 33 23 20 21 22 21 22 22 23 27 31
283 203 224 245 306 319 98 139 147 149 162 173 142 114 115 188 202 75 81 124 151 160 72 31 9 315 280 118 130 123 61 32 26 20 31 42 50 54 55 75 95 106 103 128 140 151 165 166 181 209 223 226 224 221 218 215 218 217 218 224 220 216 209 195 191 201 227 235 231 228 237 248 254 261 256 228 189 194 181 166 154 139 124 110 90 44 26 13 12 15 17 18 19 21 24 25 26
310 311 262 253 12 265 163 150 154 183 177 132 111 116 166 189 56 33 318 235 97 55 54 32 337 314 285 158 150 124 42 19 12 19 35 43 61 62 58 59 53 90 108 127 156 151 156 168 167 191 219 232 229 229 231 227 225 221 219 221 222 226 221 206 198 206 231 239 243 239 240 252 260 269 274 277 218 194 201 190 174 160 159 170 43 27 19 10 10 15 18 19 17 17 23 25 24
322 318 269 245 192 207 183 199 171 213 168 118 111 134 159 86 52 54 348 347 71 66 69 93 335 318 322 319 110 50 2 358 1 11 34 60 77 73 68 66 54 49 55 67 174 189 163 162 161 183 201 218 223 227 234 236 236 230 227 224 222 227 225 218 209 209 223 231 239 243 242 247 258 263 264 273 267 234 211 210 206 187 185 230 345 15 13 9 8 12 17 19 18 15 21 27 27
325 289 246 219 203 203 180 195 190 220 141 114 123 145 172 126 56 347 42 342 70 119 190 86 30 325 355 12 26 6 346 350 353 352 36 127 120 106 88 77 71 50 33 40 15 322 265 190 173 179 186 194 211 224 229 238 243 237 231 231 229 229 228 223 214 214 225 233 235 241 246 250 257 261 264 264 256 245 211 205 207 199 211 239 10 16 6 5 6 8 10 15 18 15 20 30 31
302 255 237 217 199 196 169 180 188 165 115 118 133 154 199 146 121 20 83 283 260 139 128 70 66 32 32 52 27 358 354 1 2 6 87 130 154 144 101 72 79 58 40 32 19 6 331 266 213 193 189 192 196 210 220 234 247 245 232 230 236 235 234 228 220 221 230 238 238 238 244 251 254 255 254 245 246 242 213 208 212 217 236 234 224 322 350 3 2 3 6 14 18 16 19 28 31
266 243 234 235 185 162 154 172 149 82 122 128 133 143 233 156 145 146 193 219 216 214 150 110 85 75 69 67 38 17 20 20 27 42 59 57 54 87 74 56 51 51 44 33 14 1 358 324 271 229 213 205 197 198 200 223 246 253 235 224 232 236 235 236 234 233 239 242 242 241 236 241 244 242 235 221 229 231 216 218 226 229 235 231 239 273 319 345 349 358 7 12 19 23 27 29 27
274 278 244 256 73 77 61 105 75 31 113 124 125 114 246 214 102 136 250 202 195 244 168 148 132 106 94 67 47 35 33 36 43 45 53 49 45 44 42 44 39 38 29 24 15 358 349 324 290 261 241 221 206 198 192 210 239 247 239 225 224 228 231 237 237 236 242 241 241 241 234 236 234 234 235 223 219 226 229 239 244 242 225 225 240 259 296 326 340 357 9 14 24 35 39 33 26
286 289 259 82 78 87 80 89 75 42 55 119 130 111 235 278 88 188 269 267 242 247 129 162 161 119 102 70 53 43 43 47 47 46 52 45 40 40 32 30 25 23 15 14 18 5 350 309 266 254 248 228 213 203 194 205 233 235 239 230 223 225 227 230 233 237 244 243 243 242 238 237 232 238 246 241 234 232 245 251 247 238 221 222 239 250 280 322 348 3 17 27 34 42 44 37 34
320 312 334 79 102 113 100 87 70 52 24 339 43 59 263 105 122 233 264 280 249 165 60 56 92 90 87 73 55 46 48 49 47 43 45 41 37 34 28 27 18 14 11 12 14 3 352 333 282 244 235 226 217 208 201 203 223 225 226 228 228 232 234 231 233 241 249 248 250 250 247 245 241 246 250 246 238 226 231 242 245 230 210 216 230 233 246 312 15 10 22 38 40 37 39 39 44
279 41 47 77 54 95 110 83 62 58 10 323 298 288 310 51 238 241 245 271 277 82 52 52 66 69 68 61 49 47 46 43 42 36 35 35 31 27 22 20 17 15 12 11 8 0 356 351 331 260 224 216 208 200 202 209 218 221 213 209 209 228 245 248 242 245 251 249 252 250 244 246 247 246 244 243 235 223 219 220 231 227 212 212 220 223 227 226 174 7 21 55 48 28 30 35 42
282 105 93 81 7 56 116 102 87 75 278 253 276 320 340 294 265 256 251 263 75 74 59 70 75 77 76 64 55 51 47 40 37 32 28 27 23 20 15 14 14 12 11 9 3 2 359 356 357 342 267 210 194 179 183 200 208 209 211 200 199 218 233 286 264 255 256 246 248 244 234 236 243 242 240 241 241 241 235 226 225 228 224 214 215 228 235 226 205 170 47 69 34 18 22 35 40
281 121 121 104 23 36 121 120 147 222 259 257 316 328 285 267 270 296 252 115 99 96 86 90 93 96 95 79 69 60 54 46 39 32 27 26 22 19 16 15 17 15 14 9 5 7 4 10 18 357 337 177 171 160 163 184 192 190 174 140 140 182 158 101 98 173 206 223 251 250 243 245 252 254 246 241 245 250 245 232 225 225 227 217 222 235 242 233 216 175 179 308 28 23 26 43 49
267 338 118 123 209 216 173 178 210 230 252 259 269 269 259 258 308 294 226 120 116 123 110 113 115 113 106 86 76 70 63 52 42 34 31 29 21 24 26 20 21 23 17 12 9 13 21 34 30 9 32 115 147 153 157 168 164 155 159 147 125 121 131 134 156 153 145 118 31 254 251 261 262 258 248 241 244 252 254 244 224 202 190 191 231 247 250 243 232 214 202 200 58 68 41 63 65
31 22 116 203 222 220 213 224 229 224 238 226 234 253 249 229 19 272 192 127 129 137 132 135 137 128 111 97 85 77 70 60 43 33 35 35 28 27 31 26 25 25 17 15 18 27 45 46 31 31 99 119 144 154 163 172 161 152 160 160 150 142 128 116 114 95 100 94 57 53 270 301 273 241 232 233 231 241 247 236 215 195 196 195 190 188 206 224 231 234 220 215 81 90 69 91 78
30 342 274 258 249 240 223 234 229 213 230 215 229 259 241 124 203 243 146 135 148 146 148 149 151 137 114 107 95 81 77 74 56 50 51 52 42 28 27 27 26 23 18 26 39 53 65 56 50 86 121 136 150 149 156 166 159 152 153 152 149 143 132 127 120 96 95 91 67 54 55 53 57 174 171 150 157 158 150 173 181 184 194 198 200 181 175 201 228 251 236 229 202 155 161 118 83
339 311 283 250 237 237 222 229 219 201 226 210 227 262 229 140 219 220 137 149 163 157 158 157 160 138 114 98 89 85 86 90 90 77 59 50 39 24 25 27 23 21 28 48 67 72 81 78 82 108 114 132 155 151 141 142 139 137 135 133 131 125 125 133 132 116 100 90 80 68 64 68 82 118 131 120 119 117 115 128 146 162 167 179 206 198 198 220 243 265 249 246 260 212 177 88 49
303 287 287 266 245 241 218 207 199 206 211 176 208 259 238 205 202 143 134 154 164 167 166 161 163 140 127 116 119 146 133 121 103 73 48 42 31 23 28 28 23 25 41 66 85 87 93 96 101 120 117 115 137 145 134 127 126 124 119 121 123 118 116 116 117 118 109 99 98 97 83 81 94 107 117 119 117 115 112 115 118 120 120 127 164 182 198 233 255 264 253 260 266 200 158 27 19
286 250 279 294 272 241 179 153 168 199 177 147 197 265 252 201 165 129 137 158 166 174 175 172 170 155 158 158 165 173 155 160 96 68 43 36 25 25 27 27 34 43 62 81 91 92 96 99 102 118 132 124 124 130 128 122 123 124 119 118 121 119 113 110 111 112 112 110 114 123 106 92 92 95 99 101 104 104 101 99 94 91 87 85 89 101 111 106 87 77 62 17 32 92 121 303 343
265 258 247 261 273 194 137 145 175 186 158 170 204 260 265 157 138 142 151 164 172 181 182 175 176 167 169 173 180 181 155 141 97 76 50 38 27 30 28 26 37 51 79 93 94 93 99 106 104 109 125 132 126 126 129 123 121 127 126 119 115 111 109 111 112 108 107 105 105 107 103 94 87 82 79 78 92 97 94 90 76 69 65 56 66 68 59 58 37 23 45 55 37 22 348 320 328
230 259 253 224 244 183 143 149 178 183 147 189 205 252 256 148 138 155 154 172 185 192 188 176 180 174 171 179 182 179 151 133 115 93 66 50 37 34 33 31 38 72 102 102 96 97 106 113 113 113 117 123 124 124 126 123 121 125 124 118 113 109 107 110 109 105 102 99 99 97 93 88 81 80 82 84 90 88 89 90 84 83 83 69 69 75 65 62 48 29 43 77 60 19 13 350 339
211 230 264 249 242 251 174 142 160 162 142 192 213 254 276 141 137 160 163 179 195 204 198 184 183 177 176 182 177 173 154 144 143 112 74 65 53 40 48 44 58 110 117 108 100 103 112 115 116 117 116 117 119 119 119 120 122 122 118 115 114 111 109 106 103 101 99 97 95 94 93 91 86 83 83 85 86 85 86 87 86 85 85 85 83 85 84 81 77 65 63 74 68 46 37 30 20
219 205 247 263 253 261 256 157 135 162 183 215 219 237 270 231 141 163 180 185 198 212 212 196 188 183 181 179 172 175 165 154 149 125 85 71 65 58 73 71 97 121 117 113 111 110 111 111 112 114 115 116 117 118 119 119 120 118 115 114 113 113 112 108 102 99 98 97 96 95 96 95 94 91 86 83 81 82 84 83 82 77 75 77 77 77 77 79 77 73 70 65 62 54 43 36 27
283 245 259 275 251 245 258 245 136 173 211 236 232 232 257 251 176 168 183 193 202 214 219 204 193 189 180 182 179 167 164 156 138 121 97 86 81 78 85 87 109 119 117 121 123 118 114 114 115 115 115 116 118 120 120 118 115 113 112 112 112 111 111 108 105 103 100 99 98 98 100 98 97 97 93 90 83 80 80 79 77 74 73 72 71 70 67 68 67 67 66 59 56 51 43 33 18
310 299 291 289 273 259 266 259 107 166 241 247 252 252 258 259 233 182 174 189 204 215 220 206 195 193 182 188 181 164 173 156 128 120 110 98 90 89 91 91 104 107 106 126 130 125 121 123 123 121 115 113 117 117 116 116 115 113 112 111 108 105 104 103 102 104 102 100 99 99 100 99 99 98 98 96 90 84 81 78 76 73 72 71 70 67 59 57 53 54 56 52 49 42 36 29 15
295 289 282 274 270 270 268 163 112 108 259 256 258 263 265 266 262 233 186 183 201 212 214 208 200 196 188 187 178 170 171 138 126 136 135 127 99 95 99 95 107 114 101 115 132 131 125 126 128 127 121 113 114 117 116 116 116 115 113 108 103 100 100 101 99 99 99 99 100 99 98 97 99 100 101 100 95 90 86 84 80 74 70 69 70 68 63 60 51 49 53 51 52 42 33 26 21
266 271 274 268 261 268 267 162 134 136 236 264 267 268 268 263 265 263 213 183 203 212 213 217 206 194 187 186 183 176 157 132 147 158 153 154 125 110 114 109 116 125 120 115 131 138 135 134 134 129 125 122 121 126 126 123 121 121 118 114 110 105 103 103 101 99 99 100 99 98 97 96 96 96 98 100 98 94 89 87 84 79 73 69 71 71 69 67 60 56 50 48 51 46 38 28 28
257 258 260 264 260 270 261 158 151 180 219 271 276 273 271 265 264 263 233 199 208 214 215 220 201 189 187 186 185 177 166 158 164 166 162 162 146 132 127 120 119 121 127 125 123 126 124 131 136 133 134 134 132 134 137 136 131 128 125 121 117 112 107 105 103 101 100 99 97 96 96 95 95 95 95 96 96 94 91 89 86 83 78 74 74 73 71 69 64 60 50 44 47 47 45 34 33
245 244 247 254 250 258 254 171 157 203 226 278 289 282 274 269 261 254 238 204 192 151 136 202 190 191 189 185 184 179 178 173 167 167 166 163 156 148 135 122 122 122 121 119 114 106 106 125 136 139 142 143 143 144 143 140 134 128 123 118 114 108 103 102 101 100 100 99 97 97 96 96 95 95 95 94 95 95 94 94 91 87 82 78 76 74 73 71 68 64 56 50 45 44 47 40 37
236 234 236 249 249 244 250 237 173 225 233 245 270 282 273 260 250 242 217 123 140 139 168 209 206 203 185 172 174 177 179 173 168 167 164 165 160 149 134 122 123 124 121 128 126 111 113 131 139 140 141 141 141 139 138 135 130 125 119 113 107 102 97 94 92 92 95 97 97 97 97 98 97 96 96 95 95 95 94 93 91 89 86 82 80 76 74 74 73 71 66 60 53 45 44 44 42
249 231 225 239 255 255 259 269 284 276 259 198 213 272 279 248 239 222 152 157 206 188 204 215 206 198 187 178 175 172 168 163 166 164 161 162 156 145 134 128 128 122 126 144 141 130 127 134 138 139 137 134 131 129 128 127 124 120 116 113 109 105 97 87 86 89 92 94 96 98 98 99 98 97 97 96 95 94 93 92 90 89 88 85 83 80 76 74 73 72 70 68 64 57 49 44 42
263 249 216 230 253 262 262 267 258 274 288 154 183 261 282 277 260 223 155 187 204 187 206 213 201 195 189 187 181 170 166 160 159 157 157 158 154 151 143 136 134 128 138 149 144 139 139 139 139 141 141 139 135 131 129 128 126 125 125 122 116 112 105 97 96 97 97 98 99 99 99 98 98 97 96 95 94 93 92 91 90 89 87 85 83 81 77 74 71 71 71 70 68 66 60 47 36
258 15 341 226 249 259 256 257 248 261 291 227 192 240 276 274 267 241 175 199 216 202 206 204 197 195 186 183 177 169 168 164 160 159 161 161 158 156 149 140 134 133 142 147 144 142 144 145 146 147 149 147 144 141 140 143 147 144 136 126 117 113 112 111 109 107 105 104 101 98 97 97 96 95 94 93 93 92 91 90 89 88 87 85 82 79 76 74 71 70 69 69 68 67 64 55 39
248 63 40 199 268 276 260 252 251 260 277 253 208 204 252 265 259 230 198 225 244 229 211 196 190 189 182 179 171 163 163 161 162 164 161 160 157 152 146 141 136 139 147 150 150 150 149 150 152 152 153 153 152 150 150 151 149 142 134 127 121 118 117 116 114 111 109 106 102 98 97 96 95 94 94 93 92 91 90 89 88 87 85 83 81 77 75 72 69 66 63 63 63 63 62 60 52
142 112 90 78 82 292 246 246 257 252 250 251 221 195 229 270 256 216 204 227 245 243 211 180 177 178 178 175 165 159 159 158 159 159 157 157 154 146 141 138 138 150 157 157 156 155 155 155 157 157 157 156 155 155 152 146 142 138 133 129 125 122 121 119 117 113 110 109 105 102 101 99 97 95 94 93 92 90 89 88 85 83 81 80 77 75 73 69 66 62 60 57 57 58 57 56 55
138 149 128 123 186 182 211 235 247 257 251 243 223 206 218 268 254 206 213 220 224 216 148 150 163 171 174 168 163 160 158 155 154 154 151 149 145 142 145 143 144 157 160 160 161 161 160 161 162 162 160 158 154 152 149 143 140 138 134 131 129 128 127 125 121 116 114 112 108 107 106 104 101 98 96 95 92 90 87 85 82 79 77 75 72 69 67 65 63 58 56 53 51 52 51 51 50
163 185 189 200 211 181 217 223 202 247 256 236 215 208 210 234 238 203 200 120 121 137 139 158 166 169 169 163 162 161 157 154 154 154 150 148 147 149 154 150 149 156 158 163 166 165 165 165 167 166 162 159 154 151 149 145 142 139 136 134 132 132 132 130 126 124 123 119 114 112 110 107 104 102 99 96 93 89 86 82 79 76 71 68 65 61 58 57 55 51 47 45 44 43 43 43 39
198 195 192 209 226 213 227 221 203 236 252 96 152 198 213 236 243 241 237 124 118 97 102 153 167 167 164 159 160 158 155 156 157 158 156 156 158 159 161 157 154 157 159 163 166 165 166 164 166 165 161 158 155 152 151 149 145 141 139 138 136 136 137 137 134 131 127 123 120 119 116 113 111 108 104 99 94 89 84 79 74 69 64 60 56 52 48 45 43 40 37 35 34 32 30 32 30
195 192 188 200 217 235 243 234 228 237 232 90 124 179 232 257 241 238 238 132 108 94 85 115 155 161 159 155 157 154 153 158 160 161 160 161 163 162 162 159 158 160 161 162 164 165 163 157 160 163 160 159 157 155 154 152 148 145 144 143 142 143 143 141 138 136 135 132 131 129 126 123 118 113 107 100 94 87 81 75 69 64 60 55 50 45 42 39 37 37 34 31 31 29 27 27 25
197 198 199 211 217 239 251 246 246 252 157 135 167 172 219 234 153 202 188 109 103 104 104 93 120 147 150 149 153 153 157 162 161 162 164 164 163 161 161 161 161 162 163 163 164 164 161 157 162 164 161 160 160 159 158 155 152 150 149 148 148 148 148 146 144 142 141 139 138 135 131 126 120 113 107 101 95 88 82 75 70 65 60 55 49 43 41 37 36 35 32 29 27 25 25 25 22
195 196 212 225 229 248 263 267 256 306 331 202 189 219 246 230 116 113 117 123 127 122 127 131 128 139 145 152 159 162 165 166 165 166 165 164 164 163 162 162 161 162 164 165 166 165 162 162 165 165 162 163 163 162 161 159 157 155 153 153 154 154 153 150 147 144 143 141 139 136 132 128 123 117 112 106 98 91 85 78 71 64 57 51 45 39 35 31 30 29 24 21 19 15 14 13 11
169 192 211 214 17 288 265 244 108 3 279 246 180 223 262 254 217 148 137 149 146 140 149 153 146 147 157 166 168 171 171 169 170 170 167 166 165 165 164 164 164 165 166 168 168 168 167 167 167 166 165 166 167 166 165 163 160 159 158 158 158 158 155 152 148 146 145 143 141 139 135 132 127 123 117 109 101 94 85 75 65 54 45 39 33 29 26 24 24 20 14 10 8 8 6 2 359
150 196 201 124 45 324 273 261 252 237 259 251 183 216 228 218 224 147 149 176 167 165 169 159 152 158 174 181 175 176 174 170 171 170 168 167 165 166 166 166 167 167 168 168 170 171 171 170 170 169 170 169 169 169 168 166 164 162 162 162 161 160 156 153 151 149 149 147 145 142 139 134 129 125 118 110 100 88 75 62 51 41 35 29 25 22 18 15 15 11 6 0 357 358 359 356 351
191 275 193 147 224 231 209 234 258 244 250 260 224 225 225 218 215 158 175 196 182 171 170 169 170 173 184 185 176 177 173 169 173 173 171 168 168 170 169 168 168 168 169 169 172 175 174 173 173 172 173 172 172 172 170 168 167 165 165 165 164 162 159 157 155 154 154 152 149 145 141 136 130 123 114 101 88 75 62 53 45 38 32 25 20 15 9 6 4 1 359 354 350 349 351 350 346
242 315 231 209 253 244 216 218 245 247 250 267 253 231 222 222 207 180 188 197 182 171 173 183 182 180 186 182 174 177 175 174 177 176 174 170 171 172 170 169 168 168 169 170 176 180 177 176 175 174 175 175 174 174 172 171 171 169 169 168 167 165 163 162 160 159 158 154 151 147 142 136 129 119 108 95 83 72 62 54 47 39 31 23 14 8 3 360 357 353 351 347 345 344 344 344 341
181 208 210 201 193 256 279 246 234 242 248 256 260 254 240 213 199 192 194 193 181 171 170 181 181 179 183 179 174 177 177 177 178 177 174 170 169 170 169 169 168 169 172 174 180 183 179 179 178 177 178 178 176 175 174 175 175 174 173 171 170 169 167 166 164 163 161 157 154 149 143 136 128 118 108 98 87 78 70 62 53 43 33 23 15 8 2 358 354 349 346 343 342 341 340 338 335
190 200 200 201 195 189 240 240 218 218 245 246 262 270 261 129 86 221 194 184 174 165 163 167 174 176 175 175 176 176 177 179 179 177 172 166 168 168 167 167 169 172 176 178 182 183 182 181 180 180 181 181 179 178 177 178 178 177 176 174 173 172 171 170 169 167 165 161 157 151 144 137 130 123 115 109 102 96 88 76 63 50 39 28 18 12 5 359 354 349 344 341 339 337 335 332 329
Height
795 794 794 793 792 793 791 792 805 802 798 814 816 815 819 814 812 813 813 813 814 814 811 812 811 811 813 815 814 812 812 816 819 820 829 825 818 822 821 822 823 824 825 826 827 828 830 831 832 833 834 835 836 837 838 839 840 841 842 843 843 844 844 845 846 847 847 848 848 848 849 849 849 849 849 849 849 849 849 849 849 849 849 849 849 850 849 849 849 849 849 849 849 848 848 847 847
795 795 794 794 792 795 793 792 809 809 806 821 817 815 819 812 813 815 815 815 816 815 812 811 811 812 812 812 810 811 814 813 812 815 819 818 819 822 821 823 824 825 827 827 828 829 831 832 833 834 835 836 837 838 839 840 841 842 843 843 844 845 845 846 847 847 848 849 849 849 850 850 850 850 850 850 850 850 850 850 850 850 850 850 850 850 850 850 850 850 850 849 849 848 848 847 847
795 795 794 795 792 792 793 796 809 810 813 824 822 817 816 814 816 816 815 815 815 813 812 813 813 813 811 813 812 813 818 813 811 812 814 818 820 821 823 823 823 826 827 829 830 830 832 832 833 834 835 836 837 838 839 840 841 842 843 844 845 845 846 847 848 848 849 850 850 850 851 851 851 850 851 850 850 851 851 851 851 851 851 851 851 851 851 851 851 851 850 850 849 849 848 848 847
795 795 794 794 794 794 797 803 806 806 813 820 823 820 814 816 816 816 815 814 813 812 813 813 814 812 811 816 813 813 818 815 815 815 815 820 822 823 824 823 825 826 827 829 830 831 832 832 834 835 836 837 838 839 839 841 841 842 843 844 845 845 846 847 848 849 849 850 851 851 851 852 852 851 851 851 851 851 851 852 852 852 852 852 852 852 852 852 852 851 851 850 850 849 848 848 847
795 795 794 793 798 799 800 807 805 807 815 814 819 820 814 815 815 816 815 814 814 814 814 813 816 813 811 815 812 817 822 817 817 818 819 822 823 824 824 825 826 827 828 829 831 832 832 833 834 835 836 837 838 839 840 841 842 842 843 844 845 846 846 847 848 848 849 850 851 852 852 852 852 852 852 852 852 852 852 853 853 853 853 853 853 853 853 853 853 852 852 851 850 849 849 848 848
795 795 793 792 796 798 803 811 809 813 816 810 815 819 814 814 815 816 814 814 814 814 814 814 816 813 814 816 814 820 823 820 820 821 823 823 823 824 825 826 827 828 829 830 832 832 832 833 835 836 837 838 839 839 840 841 842 843 844 844 845 846 846 847 848 849 850 850 851 852 852 852 853 853 853 853 853 853 853 853 854 854 854 854 854 855 854 854 854 853 852 851 851 850 849 849 848
796 796 794 796 797 798 808 812 811 815 816 811 813 815 814 815 815 815 815 816 816 815 815 815 813 815 819 817 818 823 823 823 823 824 826 824 824 824 825 826 828 829 829 831 833 833 833 834 835 837 838 839 839 840 841 841 842 843 844 845 846 846 847 848 848 849 850 851 851 852 852 853 853 853 853 853 853 853 854 854 854 854 855 855 855 855 855 854 854 853 853 852 852 851 850 850 849
796 797 795 802 805 805 809 810 812 815 816 814 812 814 815 816 816 816 816 817 818 816 815 814 813 818 820 815 821 825 824 825 825 827 826 825 825 825 826 827 828 829 831 832 833 833 833 834 836 837 838 839 840 841 841 842 843 844 844 845 846 847 847 848 849 849 850 851 851 852 852 852 853 853 853 853 853 854 854 854 855 855 855 855 855 855 855 855 855 854 854 853 853 852 851 850 850
795 797 799 804 809 811 812 813 817 816 816 816 814 816 816 816 816 816 816 817 818 817 817 815 814 820 820 816 823 823 824 827 827 827 826 826 826 826 827 827 828 830 831 832 833 834 834 835 836 837 838 839 840 841 842 843 844 844 845 845 846 847 848 848 849 850 850 851 852 852 852 853 853 853 854 854 854 854 854 855 855 855 855 856 856 856 856 856 856 855 855 854 853 852 852 851 851
795 797 801 806 809 815 817 816 818 817 817 815 814 816 817 816 817 816 816 818 818 818 819 815 815 819 818 820 824 824 826 828 827 828 827 828 827 828 828 827 828 829 831 832 834 835 835 835 836 837 838 839 841 842 843 843 844 845 845 846 847 847 848 849 850 850 851 851 852 852 853 853 853 853 854 854 854 855 855 855 855 856 856 856 857 857 857 857 856 856 855 854 854 853 852 852 851
800 799 801 810 813 817 818 816 818 818 816 815 815 815 816 817 817 818 817 818 818 819 819 818 819 819 819 822 825 826 828 827 827 828 828 828 828 829 829 828 828 829 831 832 833 835 835 835 836 838 838 839 841 842 843 843 844 845 846 846 847 848 848 849 850 851 851 852 853 853 853 853 853 854 854 855 855 855 855 856 856 856 857 857 857 857 857 857 857 856 856 855 854 854 853 853 852
805 803 805 815 813 812 812 814 818 818 818 818 818 817 816 817 818 818 818 819 819 819 819 820 820 819 821 823 824 826 827 828 829 829 829 829 829 829 829 828 828 829 830 831 832 833 834 835 836 837 838 839 840 841 842 843 844 845 846 847 847 848 849 850 850 851 852 853 853 853 854 854 854 854 855 855 856 856 856 856 856 857 857 857 857 857 857 857 857 856 856 855 854 854 854 853 853
806 805 808 815 811 810 812 815 817 819 821 817 817 818 817 818 818 817 817 819 819 821 821 819 818 819 822 822 821 823 826 829 829 830 830 830 830 830 829 829 829 829 830 831 832 833 834 834 836 837 838 839 839 841 841 842 843 844 845 846 847 848 848 849 850 851 852 853 853 853 854 854 854 855 855 856 856 856 857 857 857 858 858 858 857 857 857 857 857 856 856 855 855 854 854 854 854
805 804 808 814 813 813 814 816 819 821 820 814 816 817 817 818 817 816 817 819 820 821 822 819 818 822 823 821 822 823 827 830 829 830 830 830 831 830 830 830 830 830 831 831 832 833 833 834 835 837 837 838 839 840 841 841 842 843 844 845 846 847 848 849 849 850 851 852 853 853 854 854 855 855 855 856 856 856 857 857 858 858 858 858 858 858 858 858 857 857 857 856 855 855 855 854 854
805 803 807 813 816 816 815 817 818 820 816 814 818 817 817 818 816 818 818 821 823 819 820 819 819 824 824 822 825 826 829 830 829 830 830 831 831 831 831 831 831 831 832 832 832 833 833 834 835 836 837 838 840 840 841 841 842 843 844 845 846 846 847 848 849 850 850 851 852 852 853 853 854 854 855 855 856 856 857 858 858 859 859 859 859 859 859 858 858 858 858 857 856 856 855 855 855
804 805 809 814 818 818 817 816 816 819 816 815 818 817 819 819 816 819 819 820 822 818 819 822 821 824 824 825 829 830 831 830 829 830 830 831 831 831 832 832 833 832 832 833 833 833 833 834 835 836 837 837 839 840 841 841 842 843 844 845 845 846 847 848 849 850 850 851 851 852 853 853 854 854 855 855 855 856 856 857 858 858 859 859 859 859 859 859 859 859 858 858 857 857 857 856 856
805 808 813 815 816 817 815 815 817 818 816 816 817 817 820 821 818 818 818 818 820 819 820 823 823 825 826 829 832 831 831 830 830 830 830 831 830 831 832 832 833 833 834 834 834 834 834 834 835 835 836 837 838 838 840 841 841 842 843 844 845 846 847 848 849 849 850 850 851 852 852 853 853 853 854 854 855 855 856 857 858 858 859 859 859 859 860 860 860 860 859 859 858 858 857 857 857
809 810 814 814 812 814 812 810 812 813 815 817 817 818 819 821 820 818 819 820 820 819 820 824 825 827 829 831 831 831 831 831 830 830 830 830 830 831 832 832 833 834 834 834 834 834 834 835 835 836 836 837 837 838 839 841 841 842 843 844 844 845 846 847 848 849 850 850 850 851 852 852 853 853 854 854 855 855 856 856 857 858 858 859 859 859 860 860 860 860 860 859 859 859 858 858 858
810 811 812 812 812 813 809 808 810 811 814 816 817 819 820 820 820 819 821 821 820 820 821 823 826 828 830 830 831 831 831 831 831 831 831 831 832 832 832 833 833 834 834 834 835 834 834 834 834 835 835 836 837 838 839 840 842 842 843 843 844 845 846 847 848 849 849 850 850 851 852 852 853 853 853 854 854 855 855 856 856 857 857 858 858 859 860 860 860 860 860 860 859 859 859 859 859
810 811 813 813 813 813 811 810 813 813 814 816 817 820 820 819 818 819 821 821 819 819 821 822 824 827 829 831 832 832 832 832 832 832 832 832 833 833 833 834 834 834 835 834 835 834 834 833 834 834 834 835 837 838 839 840 842 842 843 843 844 845 846 847 848 848 849 850 850 851 852 852 853 853 853 854 854 855 855 855 855 856 857 857 858 858 859 860 860 860 860 860 860 860 860 860 860
810 812 814 813 812 814 814 813 814 815 816 817 818 820 820 817 818 819 821 822 818 817 821 823 824 827 829 831 832 833 833 833 833 833 833 834 834 834 835 835 835 835 835 835 834 834 833 832 832 833 833 834 836 838 839 840 841 842 843 843 844 845 845 846 847 848 848 849 850 851 851 852 853 853 853 854 854 855 855 855 855 855 856 856 857 858 858 859 859 860 860 861 862 861 861 861 860
812 812 814 813 812 816 816 815 817 818 818 819 819 820 819 817 819 818 820 823 820 821 825 826 827 829 830 832 833 833 834 834 834 835 835 835 835 836 836 836 835 835 835 835 834 834 833 832 831 831 832 833 835 837 839 841 841 842 843 844 845 845 846 846 846 847 847 848 849 850 850 851 852 853 853 854 854 855 855 855 855 855 855 856 857 857 858 858 859 860 860 861 862 862 861 861 861
815 815 814 814 814 817 816 816 820 820 820 821 820 819 819 820 820 816 818 821 824 827 828 828 829 831 832 833 834 834 835 836 836 836 836 836 837 836 836 836 836 836 835 834 834 834 832 831 830 831 831 832 833 836 839 841 841 843 843 843 845 845 846 846 846 846 847 847 848 849 849 850 851 851 852 853 853 854 855 855 856 856 856 857 857 858 858 858 859 860 860 861 861 861 861 861 861
815 816 816 817 817 817 817 818 821 821 821 820 819 821 821 821 820 817 818 823 826 829 829 830 831 832 833 834 834 835 836 837 837 837 837 837 837 837 837 837 836 836 835 835 834 833 833 831 831 831 831 832 833 835 838 840 842 843 843 844 845 845 846 846 846 846 847 847 848 848 848 849 850 850 851 852 852 853 854 854 855 856 856 857 857 858 858 858 859 860 860 860 860 860 860 861 860
814 816 816 818 819 817 817 819 820 821 820 820 821 823 820 818 820 819 819 823 827 829 830 831 832 832 833 834 835 836 837 837 838 838 838 838 837 837 837 837 837 836 835 835 834 833 833 832 831 831 832 833 834 835 837 838 840 841 842 843 844 845 845 846 846 847 847 848 849 849 849 849 849 850 850 851 851 851 852 853 854 855 856 856 856 857 858 858 859 860 860 860 860 861 860 860 860
816 817 818 818 818 816 817 818 819 820 819 820 823 822 817 816 820 819 818 823 827 828 830 830 831 832 833 835 836 836 837 838 838 838 837 837 837 837 837 837 836 836 836 835 834 833 832 832 832 832 832 833 834 835 835 835 836 837 838 840 841 843 845 846 847 847 848 849 849 849 849 849 849 849 850 850 850 850 851 852 853 853 854 855 856 856 857 858 859 859 860 860 860 861 861 861 860
817 818 818 817 817 815 816 817 816 818 818 819 822 819 815 818 821 819 818 824 826 827 829 830 830 831 833 834 835 836 837 838 838 837 837 837 837 837 836 836 836 836 835 835 834 833 833 832 832 832 832 832 833 833 833 834 835 836 837 838 840 841 843 844 846 847 848 849 849 850 850 850 850 850 850 851 850 851 851 851 852 853 853 854 855 855 856 857 858 859 859 859 860 861 861 861 861
818 819 818 815 815 814 814 815 815 817 818 816 819 818 816 821 821 815 818 824 825 826 828 829 829 830 832 833 835 836 837 837 838 837 837 837 837 837 837 836 836 836 835 835 834 833 833 833 832 833 832 832 833 833 834 835 835 836 838 839 839 841 842 842 844 846 847 848 849 850 851 851 851 850 851 851 851 852 852 852 852 853 853 854 855 854 855 857 858 858 859 859 859 860 860 860 861
818 819 819 815 812 812 810 812 815 816 817 815 817 821 816 816 816 813 818 823 823 825 826 828 829 830 832 833 835 836 836 837 837 837 837 837 837 837 837 837 836 836 836 835 834 834 833 833 833 833 833 833 833 834 835 836 836 837 839 840 841 841 842 842 843 845 846 847 849 850 851 851 851 852 852 852 852 853 853 853 853 854 854 854 855 855 855 856 857 858 858 859 859 859 859 860 861
818 817 820 818 814 811 809 812 816 817 818 815 819 825 811 803 810 814 818 822 822 824 824 826 828 830 832 833 834 835 836 837 836 838 838 838 838 838 838 838 837 837 837 836 835 835 834 834 834 834 834 834 834 835 836 836 837 838 840 841 842 842 843 843 843 844 845 846 848 849 851 852 852 852 853 853 853 854 854 854 854 855 855 855 856 856 856 857 857 858 858 859 859 859 859 860 861
818 818 819 820 819 815 811 813 815 817 819 815 821 827 809 801 811 815 817 820 821 821 821 823 826 828 831 832 834 834 835 837 837 838 838 838 839 838 839 838 838 838 837 837 836 836 835 835 835 835 835 835 836 836 837 838 838 839 841 842 842 843 844 844 845 845 845 846 847 848 850 851 852 853 854 854 854 855 855 854 855 856 856 856 856 857 857 857 858 858 858 859 859 859 860 860 860
816 823 822 816 819 816 810 812 813 815 819 816 821 824 808 803 812 814 816 819 819 818 817 820 824 826 829 831 832 833 834 837 837 838 838 839 839 839 839 839 838 838 837 837 837 837 836 836 836 836 836 836 837 837 838 839 840 840 841 842 843 844 845 845 846 846 846 847 847 848 849 851 852 853 854 855 855 855 855 855 856 857 857 857 857 857 858 858 858 859 859 860 860 860 860 860 860
815 823 823 816 817 814 810 813 813 812 816 816 819 818 806 804 812 814 816 818 818 817 815 818 822 824 827 829 830 831 833 835 836 838 838 839 839 839 839 839 839 838 838 838 838 838 837 837 837 837 838 837 838 838 839 840 841 842 842 843 844 845 846 847 847 848 848 848 848 848 849 851 852 854 855 856 856 856 856 856 857 857 857 857 858 858 859 859 859 859 859 860 860 859 860 860 860
814 817 820 815 813 814 813 814 813 813 816 816 816 817 810 804 810 814 815 816 817 816 813 815 819 823 825 827 828 830 831 834 835 837 839 839 839 840 840 839 839 839 839 839 839 839 839 839 839 839 839 840 840 840 841 841 842 843 843 845 846 846 847 848 848 849 849 850 850 849 849 850 852 854 855 857 857 857 857 858 858 858 858 858 859 859 859 859 859 860 860 860 860 859 860 860 860
812 815 818 815 811 813 813 811 812 813 815 815 814 815 810 803 805 810 812 813 814 813 811 812 816 820 823 825 827 829 830 832 835 837 838 839 839 840 840 840 840 840 840 840 840 840 840 841 841 841 842 842 842 842 842 843 843 844 845 846 847 848 849 849 850 850 851 851 851 851 851 851 851 853 855 857 858 859 859 859 859 859 859 860 860 860 860 860 861 861 861 861 860 860 860 860 860
812 813 816 818 816 814 809 808 812 812 815 815 812 811 806 801 800 803 808 810 811 810 808 811 815 819 821 824 825 828 830 832 835 838 838 839 839 840 840 840 841 841 841 841 841 842 842 842 842 843 844 844 844 844 844 845 845 846 847 847 848 849 850 851 851 851 852 852 853 853 852 852 852 853 855 856 858 859 860 860 860 860 860 860 860 861 862 862 863 863 862 862 862 861 861 861 860
813 815 817 818 819 815 806 809 813 812 816 814 808 808 804 800 797 796 802 806 808 808 807 810 814 817 820 822 825 827 829 832 836 838 838 839 840 840 840 841 841 842 842 843 842 843 843 843 844 844 845 846 846 847 847 846 847 847 848 848 849 850 851 852 852 853 853 854 854 854 854 853 853 854 855 857 858 859 860 860 861 861 861 861 862 862 863 863 864 864 864 864 863 863 862 861 860
814 817 819 817 818 814 805 810 815 813 819 815 805 807 804 800 798 793 797 804 805 803 804 807 810 814 818 820 823 826 829 833 836 837 838 839 840 840 841 841 842 843 843 843 843 843 844 844 845 845 845 846 847 847 847 847 848 848 849 849 850 852 853 853 854 854 855 855 856 856 856 856 855 855 856 857 859 860 861 861 862 862 862 863 863 863 864 864 864 864 865 865 865 865 864 863 861
816 817 821 821 816 812 807 811 816 815 820 816 808 811 805 797 797 793 793 797 797 797 799 802 805 811 815 818 821 824 828 832 834 836 838 839 840 840 841 841 842 843 843 844 844 844 845 845 845 846 846 846 847 847 847 848 848 849 849 850 851 852 854 855 855 856 857 857 857 858 858 858 857 857 858 859 859 860 862 863 863 864 864 864 865 865 865 864 865 865 866 866 867 867 867 866 864
817 817 822 822 814 816 816 816 819 818 819 816 812 815 807 797 795 789 788 793 796 801 804 804 806 809 811 815 818 822 825 829 832 834 836 838 840 840 841 842 842 843 844 844 845 845 846 846 846 847 847 847 847 847 848 848 849 850 851 852 853 854 856 857 857 858 859 859 859 860 860 860 860 859 860 860 861 862 863 864 864 865 866 866 867 867 866 866 866 866 867 867 868 869 869 869 868
815 815 819 818 812 815 816 814 819 818 816 816 818 821 807 792 791 785 789 799 802 806 809 809 811 810 812 815 817 820 823 826 830 832 835 837 839 840 841 841 842 843 845 845 845 846 846 847 847 847 848 848 848 849 849 850 850 851 852 854 855 856 858 859 860 861 861 861 861 862 862 862 862 862 862 862 863 864 864 865 866 866 867 868 868 868 869 869 868 868 869 869 869 870 871 871 871
814 809 810 812 809 810 811 812 820 824 820 816 820 826 806 782 780 781 790 801 799 803 808 807 809 810 813 816 818 821 823 826 829 831 834 836 838 840 840 841 842 843 844 845 845 846 847 847 847 848 848 849 850 850 851 852 853 853 854 855 856 858 860 861 863 863 864 864 864 864 864 864 864 864 864 864 865 865 866 867 867 868 868 869 869 870 870 871 870 870 870 870 871 871 872 872 872
817 809 804 808 809 811 814 815 824 828 822 817 821 827 813 790 780 778 786 795 793 799 804 802 803 807 811 814 816 820 823 826 828 830 833 835 837 838 839 840 842 843 844 844 845 846 847 847 848 849 849 850 850 851 852 853 854 855 855 856 857 858 860 862 864 865 865 866 866 866 867 867 867 866 866 867 867 867 868 869 869 870 870 871 871 872 872 872 872 872 872 872 872 872 873 874 874
818 815 811 810 811 815 817 818 825 823 818 820 820 823 823 809 789 778 782 789 786 790 797 797 799 802 806 810 812 817 821 824 827 829 831 833 835 836 837 840 841 842 843 844 845 846 846 847 848 849 849 850 850 851 852 853 854 855 855 856 857 858 860 862 864 865 866 867 868 869 869 869 869 869 869 869 869 870 870 870 871 871 872 872 873 873 874 874 874 874 874 874 874 874 874 875 876
818 820 817 814 816 818 817 820 824 820 824 828 818 819 828 813 787 777 780 783 780 776 779 788 794 798 803 806 809 814 818 822 824 827 830 831 834 835 836 838 840 841 842 843 844 845 846 847 848 849 850 850 851 851 852 853 853 854 855 855 856 858 860 862 864 866 867 868 869 870 871 871 872 871 871 871 871 872 872 872 873 873 873 874 874 875 875 876 876 876 876 875 875 875 875 875 876
819 821 818 819 821 820 821 824 823 824 832 831 817 816 825 808 782 776 780 781 776 767 766 778 788 795 800 803 808 813 816 820 823 825 828 830 832 834 835 837 839 840 841 842 843 845 846 847 848 849 850 851 851 852 852 853 854 855 855 856 856 858 861 863 865 866 868 869 870 871 872 873 873 873 873 873 873 874 874 874 875 875 875 876 876 877 877 877 877 877 877 877 876 876 876 876 877
818 819 818 822 823 822 825 822 823 832 831 820 810 808 818 813 785 770 774 774 767 763 769 779 786 793 798 801 807 811 815 819 822 824 827 830 831 833 835 836 838 839 840 842 843 845 846 847 849 850 850 851 852 853 853 853 855 855 856 856 857 859 861 863 865 867 869 870 871 872 873 874 874 875 875 875 875 875 876 876 876 877 877 877 878 878 878 878 878 878 878 878 877 877 877 877 878
818 817 820 826 825 826 830 825 831 839 824 808 804 800 811 816 788 764 763 765 763 764 771 779 786 791 795 800 805 809 813 817 820 823 826 828 831 832 834 835 837 838 840 841 843 844 846 848 849 850 851 852 853 854 854 854 855 856 856 857 858 860 862 864 865 867 869 870 872 873 874 875 875 876 876 876 876 877 877 877 877 878 878 878 879 879 879 879 879 879 878 878 878 878 878 878 878
820 818 822 830 830 832 834 830 832 831 816 809 809 805 807 801 780 763 758 763 769 770 772 777 783 788 793 799 804 807 811 815 818 821 824 826 828 829 832 833 835 837 839 841 843 844 846 848 849 850 851 852 853 854 854 855 856 856 857 857 859 861 862 864 866 867 869 871 872 874 874 875 876 876 877 877 877 877 877 878 878 879 879 879 879 879 879 879 879 879 879 879 879 879 878 878 878
819 816 820 828 829 833 834 826 822 817 812 814 812 811 809 792 772 761 758 766 775 778 781 781 781 786 793 797 802 806 810 814 816 819 821 823 825 827 829 831 834 836 838 840 842 843 845 847 849 850 851 852 853 854 855 856 856 857 857 858 859 861 863 864 866 868 869 871 872 874 875 876 876 876 877 877 877 878 878 878 879 879 879 879 880 880 880 880 880 880 880 880 880 879 879 879 878
813 805 809 816 816 819 819 814 810 806 810 819 819 813 801 785 771 765 767 776 780 783 787 788 785 787 793 798 802 806 809 812 815 817 820 821 823 825 828 830 832 835 837 839 841 842 844 846 847 849 850 852 852 854 855 856 857 857 857 858 860 861 863 864 866 868 869 871 872 873 874 875 876 876 877 877 878 878 878 879 879 879 879 879 880 880 880 880 880 880 880 880 880 879 879 878 878
810 802 807 811 804 803 806 811 812 811 813 816 818 806 779 766 766 769 777 781 781 786 788 789 790 790 794 799 802 805 808 811 814 816 818 820 822 824 827 829 832 834 836 837 839 841 843 844 846 848 849 851 852 853 855 856 856 857 858 859 860 862 863 864 866 868 870 871 872 873 874 875 876 876 877 878 878 878 879 879 880 880 880 879 879 880 880 880 879 879 879 879 879 878 877 877 876
807 807 809 804 798 800 807 815 817 820 817 800 798 797 776 764 765 767 776 779 781 787 786 787 790 790 795 798 800 804 806 809 812 813 816 818 821 823 826 828 830 832 834 836 838 839 841 843 845 847 848 849 851 853 855 855 856 857 858 859 861 862 864 865 867 868 870 871 872 873 874 875 875 876 877 877 878 879 879 879 879 879 879 879 879 879 879 879 878 878 879 879 879 878 877 876 876
804 810 803 797 803 806 809 815 814 816 812 789 782 786 777 772 769 766 771 775 778 783 784 785 788 790 794 796 799 802 804 807 811 812 814 817 819 822 824 827 828 830 832 834 836 838 840 842 843 845 847 848 850 852 854 855 856 857 858 860 861 863 864 865 867 868 870 871 872 873 873 874 875 876 877 877 878 878 878 878 878 878 878 878 878 878 878 879 879 879 879 879 879 878 877 877 876
801 803 795 797 810 810 809 816 815 811 807 789 777 775 770 766 762 762 764 764 768 776 780 783 785 788 792 793 796 800 802 806 808 810 813 815 818 820 822 825 826 829 831 833 835 836 838 841 842 844 846 847 849 851 852 854 855 857 858 860 861 863 864 866 867 868 869 870 871 872 872 873 874 875 876 877 877 877 877 877 877 877 878 878 879 879 879 879 879 880 880 879 878 878 877 877 876
804 804 797 796 802 802 800 802 800 800 800 790 777 772 764 752 744 748 751 749 754 767 775 778 779 783 787 788 792 796 799 803 804 807 810 811 815 818 820 823 824 827 829 831 833 835 837 839 841 843 845 846 848 849 851 853 854 856 858 859 861 863 864 865 866 867 868 869 870 870 871 872 873 874 875 875 876 876 876 876 877 878 878 879 879 879 879 879 880 880 880 879 878 877 877 876 875
801 804 801 799 799 801 800 794 787 790 793 787 781 772 754 738 733 735 736 738 744 754 765 770 772 777 781 784 787 791 794 798 800 803 806 809 813 815 818 821 823 825 828 829 832 834 836 838 840 842 844 845 847 848 850 852 854 856 858 859 861 862 864 865 866 867 867 868 869 869 870 871 872 873 873 874 874 875 876 877 877 878 878 879 879 879 879 879 880 879 879 878 878 877 876 875 875
786 790 790 791 793 799 805 798 784 784 786 780 780 772 748 736 738 736 732 733 737 745 756 764 767 771 776 780 783 787 790 793 796 799 802 806 809 812 816 819 821 824 826 828 830 832 834 836 838 840 842 844 846 847 849 851 853 856 857 859 861 862 863 864 865 866 867 867 868 868 869 869 870 871 872 873 874 874 876 876 877 877 878 878 879 879 879 879 879 878 878 877 877 876 875 874 874